Location: Palo Alto
(37.4420°N, 122.1420°W)
Time: 14:15:49
(UTC-07:00)

ARGOS - Visible Passes

Search period start: 19 April 2015 00:00
Search period end: 29 April 2015 00:00
Orbit: 821 x 835 km, 98.7° (Epoch: 18 April)

Date Brightness Start Highest point End Pass type
(mag) Time Alt. Az. Time Alt. Az. Time Alt. Az.
19 Apr 4.5 21:36:58 22° ENE 21:37:06 22° ENE 21:41:15 10° NNE visible
19 Apr 4.4 23:18:29 37° WNW 23:18:29 37° WNW 23:22:14 10° NNW visible
20 Apr 4.9 21:18:10 15° ENE 21:18:49 15° ENE 21:21:57 10° NNE visible
20 Apr 3.8 22:59:41 53° NW 22:59:41 53° NW 23:03:56 10° NNW visible
21 Apr 5.2 21:00:21 10° ENE 21:00:34 10° ENE 21:01:08 10° NE visible
21 Apr 3.4 22:40:53 65° N 22:40:53 65° N 22:45:30 10° NNW visible
22 Apr 3.4 22:22:04 54° NE 22:22:04 54° NE 22:26:56 10° N visible
23 Apr 5.5 00:03:35 15° WNW 00:03:35 15° WNW 00:05:34 10° NW visible
23 Apr 3.8 22:03:17 38° ENE 22:03:17 38° ENE 22:08:13 10° N visible
23 Apr 5.0 23:44:47 23° WNW 23:44:47 23° WNW 23:47:57 10° NW visible
24 Apr 4.3 21:44:28 26° ENE 21:44:53 26° ENE 21:49:20 10° NNE visible
24 Apr 4.5 23:25:59 34° WNW 23:25:59 34° WNW 23:29:57 10° NNW visible
25 Apr 4.7 21:25:40 17° ENE 21:26:34 18° ENE 21:30:13 10° NNE visible
25 Apr 3.8 23:07:12 51° WNW 23:07:12 51° WNW 23:11:44 10° NNW visible
26 Apr 5.1 21:06:52 11° ENE 21:08:18 12° ENE 21:10:31 10° NE visible
26 Apr 3.2 22:48:23 74° NW 22:48:23 74° NW 22:53:21 10° NNW visible
27 Apr 3.2 22:29:35 66° ENE 22:29:35 66° ENE 22:34:50 10° N visible
28 Apr 5.6 00:11:06 13° W 00:11:06 13° W 00:12:50 10° WNW visible
28 Apr 3.6 22:10:48 44° E 22:11:02 44° ENE 22:16:11 10° N visible
28 Apr 5.1 23:52:18 20° W 23:52:18 20° W 23:55:30 10° NW visible
